CZ-6A DEB, 55544

Orbit data source: Space-Track

CZ-6A DEB, 55544 is space debris in SSO originally from a launch on Fri, 11 Nov 2022 UTC launched from the Taiyaun Space Center, China (TSC). Debris objects in space refer to the collection of defunct objects orbiting the Earth. Examples of debris include non-operational satellites, rocket bodies, and fragments generated from explosions, collisions, or faulty payload assembly.

Loading next visibility...
Identifier
55544, 2022-151YS
Orbit
SSO
Country
Flag of CNCN / PRC
Related business
Manufacturer
SAST
Mission
Spacecraft
Bus & Motor
Unknown
Mass
Unknown
Launch date (UTC)
2022-11-11 (3 years ago)
Launch vehicle
Unknown
Launch site
Taiyaun Space Center, China (TSC)
Object type
Payload
Rocket body
Debris
Shape & HBR
Unknown shape, 0.1 m
Radar Cross Section
Small (<0.1 m²)

Expand to show TLE details & history
Last TLE update: 1 day ago

TLE from 1 day ago
0 CZ-6A DEB
1 55544U 22151YS  26129.46057374  .00001119  00000-0  67278-3 0  9995
2 55544  98.9547 137.3146 0080590 125.2509 235.6235 14.07277104173389
Epoch: 2026-05-09T11:03Z
TLE epoch observation values (Epoch: 2026-05-09T11:03:13.571Z)
Latitude
-0.00003°
Longitude
104.23037°
Altitude
904.895 km
Speed
7.383 km/s
True Right ascension
09h 09m 15s
True Declination
0° 00' 00"
Sunlit
Object was in daylight at epoch
Visualization orbit readout
Latitude
Unknown
Longitude
Unknown
Altitude
Unknown
Speed
Unknown
Apparent Right ascension
Unknown
Apparent Declination
Unknown
Sunlit
N/A
Visualization observer readout
Local Sidereal Time
20:39:17
Azimuth
Unknown
Elevation
Unknown
Doppler factor
Unknown
Orbital elements
Apogee altitude
924.271 km
Perigee altitude
807.512 km
Semi-major axis
7,244.029 km
Eccentricity
0.00806
Inclination
98.9547°
RAAN
137.3146°
Arg. of periapsis
125.2509°
True anomaly
234.86563°
Mean anomaly
235.6235°
Eccentric anomaly
235.24413°
Mean motion
3.52025 °/min
Orbital period
102.27 mins
BSTAR
0.00067278
Loading maneuver chart data...
Computing Atmospheric mass density...
Loading historical data...
Loading historical data...
Loading historical data...
Loading historical data...
Loading historical data...
Loading historical data...
Loading historical data...

Documentation

Showing up to 5 results
|